Location: Most
(50.5133°N, 13.6207°E)
Time: 01:32:22
(UTC+01:00)

ISS - Pass Details

Date: 16 July 2018
Orbit: 401 x 408 km, 51.6° (Epoch: 20 November)

Event Time Altitude Azimuth Distance (km) Brightness Sun altitude
Exits shadow 01:06:23 44° 118° (ESE) 586 -3.3 -18.1°
Drops below altitude 10° 01:09:04 10° 79° (ENE) 1,494 -0.8 -18.1°
Enters shadow 02:14:36 -50° 259° (W) 10,330 3.2 -16.7°
Maximum altitude 02:42:23 73° 354° (N) 440 -3.6 -15.3°
